Location: Brookfield Center
(41.2406°N, 80.5579°W)
Time: 06:52:42
(UTC+00:00)

Cosmos 972 Rocket - Pass Details

Date: 18 January 2020
Orbit: 713 x 1151 km, 75.8° (Epoch: 24 February)

Event Time Altitude Azimuth Distance (km) Brightness Sun altitude
Rises 11:27:02 0° 342° (NNW) 3,799 7.3 -14.4°
Reaches altitude 10° 11:29:45 10° 342° (NNW) 2,781 6.6 -13.9°
Maximum altitude 11:36:10 84° 256° (WSW) 928 4.3 -12.7°
Drops below altitude 10° 11:41:49 10° 168° (SSE) 2,458 7.0 -11.7°
Sets 11:44:06 0° 167° (SSE) 3,331 7.7 -11.3°
